AMC-3

Last updated on Thu Nov 21 2024 00:02:40 GMT+0000 (Coordinated Universal Time)

1 24936U 97050A 24324.28035243 -.00000260 00000+0 00000+0 0 9994 2 24936 6.7315 70.5014 0003263 178.1743 199.0600 1.00271910 46679
UTC large
Height (km)
Speed (km/s)
/
Latitude / Longitude
Inclination (degrees)
Orbital Period (minutes)
Azimuth
Elevation
Range (km)
Doppler Factor

Next 0 passes for location: London (51.5072 / 0.1276)

Sorry there are no passes over London.